This is the latest recevied weather packets stored in our database for station/object KA9CBS. If no packets are shown the sender has not sent any weather packets the latest 10 day(s).
| Time | Temp. | Humidity | Pressure | Rain* | Wind** | Luminosity | Snow |
|---|---|---|---|---|---|---|---|
| 1777722656 | 7.78° C | 91% | 1018.7 hPa | 0 mm | - | 8 W/m² | - |
| 1777722353 | 7.78° C | 92% | 1018.7 hPa | 0 mm | - | 6 W/m² | - |
| 1777722050 | 7.78° C | 92% | 1018.7 hPa | 0 mm | - | 6 W/m² | - |
| 1777721748 | 7.78° C | 93% | 1018.5 hPa | 0 mm | - | 12 W/m² | - |
| 1777721446 | 7.78° C | 93% | 1018.4 hPa | 0 mm | - | 25 W/m² | - |
| 1777721144 | 7.78° C | 93% | 1018.5 hPa | 0 mm | - | 19 W/m² | - |
| 1777720841 | 7.22° C | 93% | 1018.4 hPa | 0 mm | - | 12 W/m² | - |
| 1777720538 | 7.22° C | 93% | 1018.3 hPa | 0 mm | - | 9 W/m² | - |
| 1777720236 | 7.22° C | 92% | 1018.4 hPa | 0 mm | - | 5 W/m² | - |
| 1777719933 | 7.22° C | 93% | 1018.4 hPa | 0 mm | - | 2 W/m² | - |
| 1777719631 | 7.22° C | 92% | 1018.6 hPa | 0 mm | - | 1 W/m² | - |
| 1777719328 | 7.22° C | 92% | 1018.4 hPa | 0 mm | - | 0 W/m² | - |
| 1777719025 | 7.78° C | 92% | 1018.5 hPa | 0 mm | - | 0 W/m² | - |
| 1777718722 | 7.78° C | 92% | 1018.4 hPa | 0 mm | - | 0 W/m² | - |
| 1777718420 | 7.22° C | 92% | 1018.4 hPa | 0 mm | - | 0 W/m² | - |
| 1777718117 | 7.22° C | 92% | 1018.6 hPa | 0 mm | - | 0 W/m² | - |
| 1777717815 | 7.22° C | 92% | 1019 hPa | 0 mm | - | 0 W/m² | - |
| 1777717511 | 7.22° C | 92% | 1018.8 hPa | 0 mm | - | 0 W/m² | - |
| 1777717209 | 7.22° C | 92% | 1018.8 hPa | 0 mm | - | 0 W/m² | - |
| 1777716906 | 7.22° C | 92% | 1018.7 hPa | 0 mm | - | 0 W/m² | - |
| 1777716605 | 7.22° C | 92% | 1018.5 hPa | 0 mm | - | 0 W/m² | - |
| 1777716303 | 7.22° C | 92% | 1018.4 hPa | 0 mm | - | 0 W/m² | - |
| 1777716000 | 7.22° C | 93% | 1018.5 hPa | 0 mm | - | 0 W/m² | - |
| 1777715698 | 7.22° C | 93% | 1018.4 hPa | 0 mm | - | 0 W/m² | - |
| 1777715395 | 7.22° C | 93% | 1018.2 hPa | 0 mm | - | 0 W/m² | - |
* Rain latest hour (hover to see other rain measurements)
** Current wind speed in m/s (hover to see current wind gust speed)